[keps] orb06334.amsat

Ray Hoad r.hoad at att.net
Thu Nov 30 17:58:48 PST 2006


SB KEPS @ AMSAT  $ORB06334.O
Orbital Elements  06334.OSCAR

HR AMSAT ORBITAL ELEMENTS FOR OSCAR SATELLITES
FROM WA5QGD FORT WORTH,TX November 30, 2006
Send SUBSCRIBE KEPS/UNSUBSCRIBE KEPS to majordomo at amsat.org only
BID: ORB06334.O
TO ALL RADIO AMATEURS BT

Satellite: AO-07
Catalog number: 07530
Epoch time:      06333.54553124
Element set:    0742
Inclination:      101.5465 deg
RA of node:       012.2077 deg
Eccentricity:    0.0011925
Arg of perigee:   284.7675 deg
Mean anomaly:     075.2076 deg
Mean motion:   12.53571975 rev/day
Decay rate:       -2.8e-07 rev/day^2
Epoch rev:           46610
Checksum:              288

Satellite: UO-11
Catalog number: 14781
Epoch time:      06333.61466647
Element set:    0238
Inclination:      098.2037 deg
RA of node:       347.3257 deg
Eccentricity:    0.0010188
Arg of perigee:   093.5230 deg
Mean anomaly:     266.7171 deg
Mean motion:   14.79491174 rev/day
Decay rate:       3.73e-06 rev/day^2
Epoch rev:           22022
Checksum:              299

Satellite: RS-10/11
Catalog number: 18129
Epoch time:      06334.72928620
Element set:     157
Inclination:      082.9262 deg
RA of node:       204.9615 deg
Eccentricity:    0.0012198
Arg of perigee:   358.2373 deg
Mean anomaly:     001.8737 deg
Mean motion:   13.72781495 rev/day
Decay rate:        4.3e-07 rev/day^2
Epoch rev:           97400
Checksum:              308

Satellite: RS-15
Catalog number: 23439
Epoch time:      06333.95831937
Element set:    0028
Inclination:      064.8210 deg
RA of node:       329.1223 deg
Eccentricity:    0.0165191
Arg of perigee:   225.6536 deg
Mean anomaly:     133.0765 deg
Mean motion:   11.27552180 rev/day
Decay rate:       -3.9e-07 rev/day^2
Epoch rev:           49123
Checksum:              292

Satellite: FO-29
Catalog number: 24278
Epoch time:      06333.97337013
Element set:    0378
Inclination:      098.5221 deg
RA of node:       315.6564 deg
Eccentricity:    0.0349861
Arg of perigee:   239.6618 deg
Mean anomaly:     116.9487 deg
Mean motion:   13.52925658 rev/day
Decay rate:       -1.2e-07 rev/day^2
Epoch rev:           50796
Checksum:              347

Satellite: SO-33
Catalog number: 25509
Epoch time:      06333.90602462
Element set:    0806
Inclination:      031.4307 deg
RA of node:       272.4320 deg
Eccentricity:    0.0354985
Arg of perigee:   125.4046 deg
Mean anomaly:     238.0269 deg
Mean motion:   14.28139364 rev/day
Decay rate:       1.89e-06 rev/day^2
Epoch rev:           42274
Checksum:              297

Satellite: VO-52
Catalog number: 28650
Epoch time:      06333.76732221
Element set:     491
Inclination:      097.8551 deg
RA of node:       043.7178 deg
Eccentricity:    0.0027173
Arg of perigee:   180.6876 deg
Mean anomaly:     179.4345 deg
Mean motion:   14.81218552 rev/day
Decay rate:       4.30e-06 rev/day^2
Epoch rev:            8489
Checksum:              324

/EX
SB KEPS @ AMSAT  $ORB06334.D
Orbital Elements  06334.MICROS

HR AMSAT ORBITAL ELEMENTS FOR THE MICROSATS
FROM WA5QGD FORT WORTH,TX November 30, 2006
Send SUBSCRIBE KEPS/UNSUBSCRIBE KEPS to majordomo at amsat.org only
BID: ORB06334.D
TO ALL RADIO AMATEURS BT

Satellite: AO-16
Catalog number: 20439
Epoch time:      06333.56932441
Element set:    0907
Inclination:      098.1885 deg
RA of node:       334.2318 deg
Eccentricity:    0.0011900
Arg of perigee:   063.7863 deg
Mean anomaly:     296.4543 deg
Mean motion:   14.31741327 rev/day
Decay rate:        1.0e-07 rev/day^2
Epoch rev:           87998
Checksum:              316

Satellite: LO-19
Catalog number: 20442
Epoch time:      06334.61957415
Element set:     838
Inclination:      098.1840 deg
RA of node:       344.7388 deg
Eccentricity:    0.0012834
Arg of perigee:   060.3818 deg
Mean anomaly:     299.8659 deg
Mean motion:   14.31983634 rev/day
Decay rate:        8.4e-07 rev/day^2
Epoch rev:           88027
Checksum:              344

Satellite: AO-27
Catalog number: 22825
Epoch time:      06333.53137142
Element set:     556
Inclination:      098.3050 deg
RA of node:       307.4202 deg
Eccentricity:    0.0009102
Arg of perigee:   128.3141 deg
Mean anomaly:     231.8883 deg
Mean motion:   14.29191690 rev/day
Decay rate:       1.35e-06 rev/day^2
Epoch rev:           68697
Checksum:              290

Satellite: IO-26
Catalog number: 22826
Epoch time:      06333.89295293
Element set:    0250
Inclination:      098.2990 deg
RA of node:       308.9167 deg
Eccentricity:    0.0009455
Arg of perigee:   124.2657 deg
Mean anomaly:     235.9425 deg
Mean motion:   14.29436304 rev/day
Decay rate:        3.7e-07 rev/day^2
Epoch rev:           68710
Checksum:              327

Satellite: PO-28
Catalog number: 22829
Epoch time:      06333.66637136
Element set:    0534
Inclination:      098.2893 deg
RA of node:       309.8926 deg
Eccentricity:    0.0010764
Arg of perigee:   103.0382 deg
Mean anomaly:     257.2012 deg
Mean motion:   14.30133912 rev/day
Decay rate:       1.58e-06 rev/day^2
Epoch rev:           68729
Checksum:              311

Satellite: GO-32
Catalog number: 25397
Epoch time:      06333.55538023
Element set:    0170
Inclination:      098.4455 deg
RA of node:       024.1937 deg
Eccentricity:    0.0002126
Arg of perigee:   091.5318 deg
Mean anomaly:     268.6118 deg
Mean motion:   14.23115325 rev/day
Decay rate:       -4.8e-07 rev/day^2
Epoch rev:           43576
Checksum:              292

Satellite: MO-46
Catalog number: 26548
Epoch time:      06334.60382025
Element set:     660
Inclination:      064.5576 deg
RA of node:       076.9842 deg
Eccentricity:    0.0037181
Arg of perigee:   223.6840 deg
Mean anomaly:     136.1287 deg
Mean motion:   14.83057644 rev/day
Decay rate:       2.09e-06 rev/day^2
Epoch rev:           33408
Checksum:              312

Satellite: NO-44
Catalog number: 26931
Epoch time:      06333.40373338
Element set:    0461
Inclination:      067.0529 deg
RA of node:       302.1119 deg
Eccentricity:    0.0004998
Arg of perigee:   261.2456 deg
Mean anomaly:     098.8072 deg
Mean motion:   14.29462872 rev/day
Decay rate:        2.2e-07 rev/day^2
Epoch rev:           26954
Checksum:              308

Satellite: SO-50
Catalog number: 27607
Epoch time:      06333.48461040
Element set:    0182
Inclination:      064.5593 deg
RA of node:       331.3157 deg
Eccentricity:    0.0035223
Arg of perigee:   074.4792 deg
Mean anomaly:     286.0196 deg
Mean motion:   14.71199594 rev/day
Decay rate:        5.1e-07 rev/day^2
Epoch rev:           21174
Checksum:              297

Satellite: CO-55
Catalog number: 27844
Epoch time:      06333.62498611
Element set:    0905
Inclination:      098.7204 deg
RA of node:       339.6527 deg
Eccentricity:    0.0009500
Arg of perigee:   311.1296 deg
Mean anomaly:     048.9069 deg
Mean motion:   14.20473830 rev/day
Decay rate:        6.8e-07 rev/day^2
Epoch rev:           17714
Checksum:              316

Satellite: CO-57
Catalog number: 27848
Epoch time:      06334.53626790
Element set:     869
Inclination:      098.7191 deg
RA of node:       339.8244 deg
Eccentricity:    0.0009445
Arg of perigee:   311.5483 deg
Mean anomaly:     048.4883 deg
Mean motion:   14.20298681 rev/day
Decay rate:        5.8e-07 rev/day^2
Epoch rev:           17725
Checksum:              355

Satellite: AO-51
Catalog number: 28375
Epoch time:      06334.70983986
Element set:     688
Inclination:      098.1417 deg
RA of node:       018.9598 deg
Eccentricity:    0.0085162
Arg of perigee:   063.5655 deg
Mean anomaly:     297.4242 deg
Mean motion:   14.40544615 rev/day
Decay rate:        4.7e-07 rev/day^2
Epoch rev:           12713
Checksum:              341

Satellite: CO-56
Catalog number: 28941
Epoch time:      06333.87309920
Element set:    0283
Inclination:      098.1588 deg
RA of node:       008.7740 deg
Eccentricity:    0.0255993
Arg of perigee:   254.3016 deg
Mean anomaly:     102.9860 deg
Mean motion:   15.31169777 rev/day
Decay rate:     1.6945e-04 rev/day^2
Epoch rev:           04284
Checksum:              344

Satellite: HO-59
Catalog number: 29484
Epoch time:      06333.75617450
Element set:      84
Inclination:      098.3142 deg
RA of node:       350.4240 deg
Eccentricity:    0.0262462
Arg of perigee:   252.8476 deg
Mean anomaly:     104.3630 deg
Mean motion:   15.35775782 rev/day
Decay rate:     3.1889e-04 rev/day^2
Epoch rev:            1031
Checksum:              313

/EX
SB KEPS @ AMSAT  $ORB06334.W
Orbital Elements  06334.WEATHER

HR AMSAT ORBITAL ELEMENTS FOR WEATHER SATELLITES
FROM WA5QGD FORT WORTH,TX November 30, 2006
Send SUBSCRIBE KEPS/UNSUBSCRIBE KEPS to majordomo at amsat.org only
BID: ORB06334.W
TO ALL RADIO AMATEURS BT

Satellite: NOAA-10
Catalog number: 16969
Epoch time:      06333.65508485
Element set:    0444
Inclination:      098.7563 deg
RA of node:       345.6198 deg
Eccentricity:    0.0012949
Arg of perigee:   032.0469 deg
Mean anomaly:     328.1495 deg
Mean motion:   14.27309745 rev/day
Decay rate:      -1.01e-06 rev/day^2
Epoch rev:           05076
Checksum:              328

Satellite: NOAA-11
Catalog number: 19531
Epoch time:      06333.49173656
Element set:    0406
Inclination:      098.8219 deg
RA of node:       060.0807 deg
Eccentricity:    0.0011065
Arg of perigee:   237.4101 deg
Mean anomaly:     122.5992 deg
Mean motion:   14.14827228 rev/day
Decay rate:       -1.1e-07 rev/day^2
Epoch rev:           93791
Checksum:              288

Satellite: NOAA-12
Catalog number: 21263
Epoch time:      06333.68457888
Element set:    0902
Inclination:      098.7437 deg
RA of node:       326.3772 deg
Eccentricity:    0.0012464
Arg of perigee:   330.1813 deg
Mean anomaly:     029.8658 deg
Mean motion:   14.25515679 rev/day
Decay rate:       -7.3e-07 rev/day^2
Epoch rev:           80782
Checksum:              331

